| time (UTC) | temp F | wind direction | speed knots | gust knots | rain 1hr in | rain 24hr in | rain mn in | humidity % | barometer mb |
| 20260503174333 | 72 | 254 | 1.7 | 1.7 | 0.00 | 0.00 | 0.00 | 59 | 1021.4 |
| 20260503171329 | 72 | 217 | 0.9 | 0.9 | 0.00 | 0.00 | 0.00 | 59 | 1021.4 |
| 20260503131319 | 50 | 203 | 0.0 | 0.0 | 0.00 | 0.00 | 0.00 | 98 | 1021.9 |
| 20260503081254 | 57 | 198 | 0.0 | 0.0 | 0.00 | 0.00 | 0.00 | 81 | 1022.0 |
| 20260503071249 | 61 | 206 | 0.0 | 0.0 | 0.00 | 0.00 | 0.00 | 68 | 1022.0 |
| 20260503054240 | 65 | 216 | 0.0 | 0.0 | 0.00 | 0.00 | 0.00 | 57 | 1021.7 |
| 20260503051239 | 66 | 232 | 0.9 | 0.9 | 0.00 | 0.00 | 0.00 | 57 | 1021.6 |
| 20260503044238 | 66 | 209 | 0.0 | 0.0 | 0.00 | 0.00 | 0.00 | 54 | 1021.6 |
| 20260503041237 | 67 | 210 | 0.0 | 0.0 | 0.00 | 0.00 | 0.00 | 56 | 1021.2 |
| 20260503034238 | 68 | 217 | 0.0 | 0.0 | 0.00 | 0.00 | 0.00 | 59 | 1020.6 |
| 20260503031235 | 69 | 231 | 0.9 | 0.9 | 0.00 | 0.00 | 0.00 | 61 | 1020.6 |
| 20260503024232 | 70 | 233 | 0.9 | 0.9 | 0.00 | 0.00 | 0.00 | 59 | 1020.2 |
| 20260503021232 | 72 | 224 | 0.0 | 0.0 | 0.00 | 0.00 | 0.00 | 60 | 1019.5 |
| 20260503014232 | 73 | 223 | 0.0 | 0.9 | 0.00 | 0.00 | 0.00 | 57 | 1020.0 |
| 20260503011232 | 75 | 206 | 0.0 | 0.0 | 0.00 | 0.00 | 0.00 | 55 | 1020.0 |
| 20260503004231 | 76 | 231 | 0.9 | 1.7 | 0.00 | 0.00 | 0.00 | 53 | 1020.1 |
| 20260503001229 | 76 | 206 | 0.9 | 1.7 | 0.00 | 0.00 | 0.00 | 52 | 1019.8 |
| 20260502234224 | 74 | 269 | 1.7 | 1.7 | 0.00 | 0.00 | 0.00 | 55 | 1020.6 |
| 20260502231222 | 75 | 214 | 1.7 | 1.7 | 0.00 | 0.00 | 0.00 | 52 | 1020.9 |
| 20260502224222 | 75 | 214 | 1.7 | 4.3 | 0.00 | 0.00 | 0.00 | 55 | 1021.4 |
| 20260502221222 | 74 | 338 | 1.7 | 1.7 | 0.00 | 0.00 | 0.00 | 59 | 1021.7 |
| 20260502214221 | 75 | 213 | 2.6 | 2.6 | 0.00 | 0.00 | 0.00 | 58 | 1022.0 |
| 20260502211216 | 76 | 206 | 0.9 | 0.9 | 0.00 | 0.00 | 0.00 | 55 | 1022.7 |
| 20260502204211 | 74 | 208 | 0.9 | 0.9 | 0.00 | 0.00 | 0.00 | 58 | 1022.9 |
| 20260502201210 | 74 | 247 | 0.9 | 1.7 | 0.00 | 0.00 | 0.00 | 59 | 1023.1 |
| 20260502194208 | 74 | 202 | 0.9 | 1.7 | 0.00 | 0.00 | 0.00 | 59 | 1023.1 |
| 20260502191205 | 72 | 229 | 0.9 | 0.9 | 0.00 | 0.00 | 0.00 | 62 | 1023.9 |
| 20260502184203 | 68 | 231 | 1.7 | 2.6 | 0.00 | 0.00 | 0.00 | 69 | 1023.8 |